Tracking 19562 objects as of 24-Mar-2019
HD Live streaming from Space Station
objects crossing your sky now

FLOCK 3P 88

Track FLOCK 3P 88 now!
10-day predictions
FLOCK 3P 88 is classified as:


NORAD ID: 41982
Int'l Code: 2017-008AL
Perigee: 488.9 km
Apogee: 502.1 km
Inclination: 97.4 °
Period: 94.4 minutes
Semi major axis: 6866 km
RCS: Unknown
Launch date: February 15, 2017
Source: United States (US)
Launch site: SRIHARIKOTA (SRI)
aabbcc
Your satellite tracking list
Your tracking list is empty




NASA's NSSDC Master Catalog

Two Line Element Set (TLE):
1 41982U 17008AL  19083.14025164  .00001969  00000-0  79789-4 0  9993
2 41982  97.4169 151.4183 0009587  90.4625 269.7712 15.25817479115729
Source of the keplerian elements: AFSPC